STARLINK-35860, 66881

Orbit data source: Space-Track

STARLINK-35860, 66881 is a payload satellite owned by SpaceX/Seattle (US) in LEO that was launched on Thu, 04 Dec 2025 UTC via an FALCON 9 launch vehicle from the Air Force Western Test Range (AFWTR). Payload-class satellites include a variety of spacecraft equipped with specific instruments for various scientific and technological missions. These include communications satellites like Starlink; space stations such as the ISS; scientific satellites like the Hubble; Earth observation satellites from companies like Planet Labs, Umbra, and HawkEye 360; GPS; miniature CubeSats for education and research; and military/defense satellites.

Loading next visibility...
Identifier
66881, 2025-283D
Orbit
LEO
Country
Flag of USUS
Related business
Manufacturer
SpaceX/Seattle
Mission
Operational Commercial Communications
Bus & Motor
STARLINK V2MO, Unknown motor
Mass
575 kg wet, ~530 kg dry
Launch date (UTC)
2025-12-04 (7 months ago)
Launch vehicle
FALCON 9
Launch site
Air Force Western Test Range (AFWTR)
Object type
Payload
Rocket body
Debris
Shape & HBR
Box + 2 Pan, 17.7 m
Radar Cross Section
36.964 m², Large (>1 m²)

Expand to show TLE details & history
Last TLE update: 1 day ago

TLE from 1 day ago
0 STARLINK-35860
1 66881U 25283D   26170.54996059  .00015190  00000-0  52387-3 0  9996
2 66881  53.1599 270.7331 0001413  97.1399 262.9762 15.30204667 31443
Epoch: 2026-06-19T13:11Z
TLE epoch observation values (Epoch: 2026-06-19T13:11:56.594Z)
Latitude
-0.00008°
Longitude
164.9699°
Altitude
476.219 km
Speed
7.629 km/s
True Right ascension
18h 02m 55s
True Declination
0° 00' 00"
Sunlit
Object was in full shadow at epoch
Visualization orbit readout
Latitude
Unknown
Longitude
Unknown
Altitude
Unknown
Speed
Unknown
Apparent Right ascension
Unknown
Apparent Declination
Unknown
Sunlit
N/A
Visualization observer readout
Local Sidereal Time
07:18:05
Azimuth
Unknown
Elevation
Unknown
Doppler factor
Unknown
Orbital elements
Apogee altitude
476.426 km
Perigee altitude
474.489 km
Semi-major axis
6,853.595 km
Eccentricity
0.00014
Inclination
53.1599°
RAAN
270.7331°
Arg. of periapsis
97.1399°
True anomaly
262.96013°
Mean anomaly
262.9762°
Eccentric anomaly
262.96817°
Mean motion
3.8253 °/min
Orbital period
94.11 mins
BSTAR
0.00052387
Loading maneuver chart data...
Computing Atmospheric mass density...
Loading historical data...
Loading historical data...
Loading historical data...
Loading historical data...
Loading historical data...
Loading historical data...
Loading historical data...

Documentation

Showing up to 5 results
|